This is the latest recevied weather packets stored in our database for station/object DG7YEO-13. If no packets are shown the sender has not sent any weather packets the latest 10 day(s).
| Time | Temp. | Humidity | Pressure | Rain* | Wind** | Luminosity | Snow |
|---|---|---|---|---|---|---|---|
| 1777586525 | 13.33° C | 52% | 1027.8 hPa | 0 mm | - | - | - |
| 1777585625 | 13.89° C | 50% | 1027.8 hPa | 0 mm | - | - | - |
| 1777584727 | 13.89° C | 49% | 1027.6 hPa | 0 mm | - | - | - |
| 1777583825 | 14.44° C | 48% | 1027.6 hPa | 0 mm | - | - | - |
| 1777582926 | 14.44° C | 47% | 1027.5 hPa | 0 mm | - | - | - |
| 1777582025 | 14.44° C | 47% | 1027.4 hPa | 0 mm | - | - | - |
| 1777581134 | 15° C | 46% | 1027.5 hPa | 0 mm | - | - | - |
| 1777580225 | 15° C | 45% | 1027.4 hPa | 0 mm | - | - | - |
| 1777579326 | 15.56° C | 44% | 1027.3 hPa | 0 mm | - | - | - |
| 1777578425 | 16.11° C | 43% | 1027.3 hPa | 0 mm | - | - | - |
| 1777577525 | 16.11° C | 41% | 1027.2 hPa | 0 mm | - | - | - |
| 1777576625 | 16.67° C | 40% | 1027.1 hPa | 0 mm | - | - | - |
| 1777575727 | 16.67° C | 40% | 1027.1 hPa | 0 mm | - | - | - |
| 1777574826 | 17.22° C | 39% | 1026.9 hPa | 0 mm | - | - | - |
| 1777573925 | 17.78° C | 38% | 1026.8 hPa | 0 mm | - | - | - |
| 1777573025 | 17.78° C | 37% | 1026.7 hPa | 0 mm | - | - | - |
| 1777572125 | 18.33° C | 36% | 1026.6 hPa | 0 mm | - | - | - |
| 1777571225 | 18.89° C | 35% | 1026.7 hPa | 0 mm | - | - | - |
| 1777570325 | 18.89° C | 34% | 1026.7 hPa | 0 mm | - | - | - |
| 1777569425 | 19.44° C | 34% | 1026.8 hPa | 0 mm | - | - | - |
| 1777568526 | 19.44° C | 33% | 1026.7 hPa | 0 mm | - | - | - |
| 1777567625 | 19.44° C | 32% | 1026.8 hPa | 0 mm | - | - | - |
| 1777566725 | 20° C | 32% | 1027 hPa | 0 mm | - | - | - |
| 1777565825 | 20° C | 31% | 1027.1 hPa | 0 mm | - | - | - |
| 1777564925 | 20° C | 30% | 1027 hPa | 0 mm | - | - | - |
* Rain latest hour (hover to see other rain measurements)
** Current wind speed in m/s (hover to see current wind gust speed)